Dati Storici

Data ora Umidita' aria (%) Temperatura aria (°C) Rad globale (W/m²) Gonioanemometro (°) Tacoanemometro (m/s) Pioggia (mm)
14-06-2020 22:10 80 % 20.849 -57.876 -0.017 0 0
14-06-2020 22:00 81.3 % 20.758 -63.635 0.572 0 0
14-06-2020 21:50 81 % 20.779 -66.002 -0.015 0 0
14-06-2020 21:40 79.6 % 20.901 -66.818 1.44 0 0
14-06-2020 21:30 78.9 % 20.863 -63.673 0.705 0 0
14-06-2020 21:20 79 % 20.855 -62.977 0.934 0 0
14-06-2020 21:10 79.1 % 20.875 -65.424 0.445 0 0
14-06-2020 21:00 79.4 % 20.775 -63.167 0.907 0 0
14-06-2020 20:50 79.8 % 20.759 -46.127 -0.013 0 0
14-06-2020 20:40 79.4 % 20.732 -54.198 0.908 0 0
14-06-2020 20:30 78.5 % 20.741 -57.911 2.885 0 0
14-06-2020 20:20 77.9 % 20.798 -59.056 1.643 0 0
14-06-2020 20:10 77.8 % 21.096 -73.182 -0.01 0 0
14-06-2020 20:00 76.5 % 21.228 -57.791 2.25 0 0
14-06-2020 19:50 77.8 % 21.353 -69.914 1.624 0 0
14-06-2020 19:40 78.4 % 21.475 -57.125 0.022 0 0
14-06-2020 19:30 78.8 % 21.551 -68.769 0.711 0 0
14-06-2020 19:20 78 % 21.585 -65.861 0.658 0 0
14-06-2020 19:10 75.9 % 21.601 -63.337 0.421 0 0
14-06-2020 19:00 75.1 % 21.903 -67.882 1.258 0 0

I dati sono presentati in modo automatico a scopo informativo. In seguito a verifica i dati possono subire modifiche o essere invalidati e non riportati negli archivi definitivi.